Regional Weather Roundup
Issued by NWS Newport/Morehead, NC

Current Version | Previous Version | Text Only | Print | Product List | Glossary Off
Versions: 1 2 3 4 5 6 7 8 9 10 11 12 13 14 15 16 17 18 19 20 21 22 23 24 25 26 27 28 29 30 31 32 33 34 35 36 37 38 39 40 41 42 43 44 45 46 47 48 49 50
000 ASUS42 KMHX 312213 RWRMHX WEATHER ROUNDUP FOR EASTERN NORTH CAROLINA NATIONAL WEATHER SERVICE NEWPORT/MOREHEAD CITY NC 600 PM EDT MON AUG 31 2015 NOTE: "FAIR" INDICATES FEW OR NO CLOUDS BELOW 12,000 FEET WITH NO SIGNIFICANT WEATHER AND/OR OBSTRUCTIONS TO VISIBILITY NCZ015>017-031-032-045>047-102-103-312300- NORTH COAST CITY SKY/WX TMP DP RH WIND PRES REMARKS EDENTON CLOUDY 75 71 88 SE7 30.08S ELIZABETH CITY CLOUDY 73 71 93 SE6 30.08F KITTY HAWK DRIZZLE 75 70 85 SE6 30.08F MANTEO DRIZZLE 73 72 95 S8 30.09F $$ NCZ045>047-081-094-103-104-312300- CENTRAL COAST CITY SKY/WX TMP DP RH WIND PRES REMARKS FRISCO CLOUDY 77 72 84 S8 30.08F SWANQUARTER NOT AVBL $$ NCZ095-097-098-100-101-312300- SOUTHERN COAST CITY SKY/WX TMP DP RH WIND PRES REMARKS BEAUFORT PTSUNNY 77 75 93 SE7 30.06S CEDAR ISLAND NOT AVBL JACKSONVILLE CLOUDY 79 73 82 E8 30.04F PINEY ISLAND MOCLDY N/A N/A N/A SE8 30.06F WILMINGTON HVY RAIN 76 75 97 NE8 30.03S FOG $$ NCZ011>013-027>030-043-044-078>080-089-090>093-098-312300- COASTAL PLAIN CITY SKY/WX TMP DP RH WIND PRES REMARKS AHOSKIE LGT RAIN 72 70 93 CALM 30.08F CLINTON PTSUNNY 81 75 81 CALM 30.03F ELIZABETHTOWN PTSUNNY 81 72 72 SE3 30.03F GOLDSBORO PTSUNNY 81 73 78 E6 30.03F GREENVILLE CLOUDY 79 73 83 E6 30.07F HAVELOCK RAIN 79 74 84 SE12 30.06F KENANSVILLE N/A 79 73 83 CALM 30.04F KINSTON PTSUNNY 79 75 89 E3 30.05F NEW BERN CLOUDY 79 73 82 SE3 30.06S RICHLANDS CLOUDY 81 70 69 SE7 30.04F ROCKY MOUNT CLOUDY 78 72 81 NE5 30.06F WASHINGTON CLOUDY 77 73 86 E6 30.06F WHITEVILLE CLOUDY 78 74 90 E3 30.03S $$ AMZ130-135-150-152-154-156-158-170-250-252-270-ANZ085-086-088-633-658-670-312300- MARINE OBSERVATIONS STATION/POSITION TIME TEMP WIND PRES WAVE SWELL AIR SEA DIR/SP/G HT/PER HT/PER (UTC) (F) (DEG/KT/KT) (MB) (FT/S) (FT/S) CHESAPEAKE LIGHT 2200 76 180/ 7/ 8 1019.6 64 E VA BEACH 2150 76 78 200/ 6/ 6 1018.9 3/ 9 3/ 9 DUCK 2100 74 79 150/ 7/ 9 1018.4 2 E DUCK 2111 78 N/A 2/ 9 OREGON INLET 2100 75 80 120/ 7/ 10 1019.2 13E OREGON INLT 2100 79 N/A 3/10 2/11 HATTERAS CG 2100 77 80 140/ 8/ 12 1018.3 DIAMOND BUOY 2150 79 84 140/ 8/ 10 1018.8 4/ 9 3/ 9 CAPE LOOKOUT 2200 78 120/ 11/ 12 1017.6 BEAUFORT LAB 2100 77 79 150/ 8/ 13 1017.3 30 SE NEW RVR IN 2108 77 81 160/ 14/ 19 1018.7 30 SE NEW RVR IN 2125 81 N/A 4/ 8 27 SE WRIGHTSVLE 2100 73 81 70/ 6/ 6 N/A 5 SE WRIGHTSVLE NOT AVBL 225 S CAPE HAT 2150 85 84 200/ 14/ 17 1018.6 4/ 7 3/ 7 41 SE CHARLESTON 2150 81 83 270/ 8/ 10 1016.5 4/ 9 3/ 9 $$

USA.gov is the U.S. government's official web portal to all federal, state and local government web resources and services.